Ana Sayfa
METAR-TAF:

METAR-TAF

Havaalanları :

Collin County Regional Airport at McKinney

McKinney, Teksas, Amerika Birleşik Devletleri

Enlem: 33-10-40N, Boylam: 096-35-25W, yükseklik: 178 m

Güncel hava durumu gözlemi

Rapor saat 19:53 UTC de 53 dakika önce yapıldı.
Rüzgar batı/kuzeybatıdan 17 kt ve 25 kt'a kadar ani rüzgarlar
Sıcaklık 17°C
Nem 45%
Basınç 1007 hPa
Görüş mesafesi: 16.1 km
Açık gökyüzü

METAR: KTKI 241953Z 29017G25KT 10SM CLR 17/05 A2974 RMK AO2 PK WND 27028/1856 SLP072 T01720050

Saat: 14:46 (20:46 UTC)


TAF: eksik

4.000'den fazla havaalanı için hava durumu gözlemleri ve tahminleri (METAR ve TAF raporları).

Kullanılabilir istasyonlar harita üzerinde sarı ve kırmızı noktalarla gösterilir.

İstasyonun adını görmek için fareyi noktanın üzerinde gezdirin.

Sonrasında hava gözlem ve tahminlerini görmek için tıklayın.

Haritayı değiştirmek için: yaklaştırmak için siyah artı işaretli yeşil düğmeye ve uzaklaştırmak için de eksi işaretli düğmeye hızla tıklayın; bitişik haritalar için yeşil okları kullanın.


METAR-TAF: